Wind_Speed
22 22 20 19 19 19 19 20 20 17 20 15 15 9 7 7 9 17 22 24 25 24 26 28 31 33 34 36 36 36 34 32 31 31 30 30 32 36 38 41 43 43 43 41
21 23 23 22 21 20 20 17 17 17 16 15 11 11 9 7 6 6 10 13 16 19 23 25 27 29 31 31 32 32 31 31 32 32 34 38 40 42 43 45 45 44 42 42
19 21 24 24 23 22 21 19 17 15 16 15 11 9 6 8 6 3 3 5 11 15 19 21 25 26 27 28 29 30 30 32 33 38 41 44 45 45 46 45 45 44 42 41
19 19 20 23 25 25 23 22 18 16 14 14 17 13 8 7 5 3 2 5 9 13 16 18 20 23 25 26 28 28 29 33 39 45 49 50 49 48 46 45 44 43 41 39
25 22 22 21 21 24 26 25 23 20 16 13 14 21 15 15 12 10 9 9 10 12 14 17 19 21 23 24 29 27 32 41 49 52 54 53 50 48 46 44 44 43 42 40
29 29 27 25 24 22 23 25 26 26 23 16 14 17 22 21 20 20 19 18 18 19 19 21 22 24 26 27 28 30 37 47 55 57 57 54 52 49 47 46 45 44 41 39
33 34 33 33 30 28 27 23 25 27 29 25 20 19 21 20 21 25 27 28 27 28 28 29 29 29 30 31 31 33 41 52 58 62 60 56 52 49 48 47 46 44 41 41
37 38 39 37 37 37 33 31 29 27 28 29 28 28 22 22 21 24 30 32 34 34 34 33 33 33 34 34 35 36 45 55 61 65 62 57 54 52 53 50 49 47 44 43
44 42 44 44 43 41 42 40 37 35 32 31 30 30 29 26 21 31 31 30 34 36 38 38 36 36 36 38 39 42 48 57 64 67 62 60 58 54 53 51 48 48 48 46
51 51 49 50 50 47 47 46 44 43 42 42 35 33 32 28 35 32 33 33 33 35 37 39 40 39 39 40 43 46 51 60 66 67 65 63 60 58 57 53 52 51 49 49
61 58 57 56 56 56 53 51 49 49 49 50 47 41 39 34 36 37 39 36 37 36 37 37 40 41 42 42 44 50 54 62 67 71 70 67 65 63 60 59 58 57 55 53
69 67 64 64 63 61 60 57 54 53 54 56 58 50 46 44 40 37 40 45 42 40 39 39 38 41 44 46 46 51 56 63 69 72 72 72 70 68 64 64 64 64 62 60
74 72 69 69 68 66 63 62 61 59 58 59 60 58 56 51 46 45 42 47 50 48 44 44 45 44 44 47 50 51 57 62 70 74 76 76 75 73 70 68 69 68 68 66
75 76 75 72 71 70 69 67 65 65 62 62 62 63 61 57 52 53 54 53 53 51 53 51 51 54 51 50 52 54 56 63 67 76 79 81 81 79 76 75 74 72 73 72
79 75 77 74 71 71 68 68 69 66 67 65 69 71 66 61 58 58 59 62 61 58 57 58 60 58 57 60 57 57 60 62 67 73 80 83 83 83 82 81 80 78 77 77
83 79 78 76 77 76 76 75 71 74 74 71 72 73 70 69 66 68 69 69 68 66 64 62 64 67 67 63 63 64 62 65 67 72 77 83 87 86 87 86 85 83 82 83
80 82 84 82 82 83 82 79 79 78 77 76 77 75 73 75 75 76 74 73 73 73 72 74 75 74 71 71 70 68 70 69 69 72 75 80 84 90 90 92 90 89 88 86
78 84 84 83 87 89 91 89 87 86 84 83 83 82 80 78 78 81 80 78 79 79 79 80 82 83 79 78 77 76 76 74 76 74 75 79 84 87 91 94 95 95 94 92
81 83 86 88 90 94 93 95 96 95 93 92 90 89 88 87 84 86 87 87 84 83 84 85 86 89 90 87 84 82 83 82 81 79 81 79 81 87 91 93 95 97 97 98
86 88 87 90 93 96 99 97 99 101 101 99 99 98 97 95 95 94 94 94 94 91 90 89 91 92 94 96 95 90 88 88 88 86 85 84 87 85 89 94 97 98 100 101
90 93 94 95 95 97 97 98 104 106 103 103 104 103 105 105 104 103 104 104 104 102 99 96 95 93 96 99 101 101 98 95 94 92 91 92 91 90 91 91 93 98 101 102
90 92 94 96 98 99 100 101 103 107 105 105 106 105 105 106 106 107 108 107 108 107 107 105 102 102 98 99 101 105 107 107 104 101 98 97 97 97 95 94 95 96 96 101
85 88 89 90 93 97 101 103 105 106 106 108 109 110 111 110 108 107 108 107 106 106 106 107 107 106 108 107 106 105 110 115 114 112 108 105 104 102 101 100 100 99 100 100
84 89 86 86 89 92 94 98 99 100 102 104 107 110 111 110 110 108 106 106 108 110 110 108 108 108 108 113 115 112 113 116 119 118 118 116 113 110 108 107 106 105 106 105
89 89 87 86 90 89 92 92 94 98 98 98 100 103 105 105 105 105 105 106 106 108 110 111 112 113 114 115 116 120 120 122 123 123 124 123 122 121 118 116 114 112 110 110
96 92 87 85 88 87 89 90 89 90 93 94 92 93 96 95 95 97 98 100 101 102 103 104 108 112 117 122 125 126 127 128 128 126 129 130 130 128 127 126 123 121 118 117
Wind_Direction
304 306 307 314 322 325 316 325 316 311 321 341 341 335 313 287 271 253 247 246 239 239 235 233 232 231 230 231 233 234 234 233 230 228 221 214 205 197 193 189 186 183 184 186
306 305 306 308 308 312 322 310 320 312 306 321 348 350 345 330 303 262 243 229 223 231 228 227 227 225 226 228 230 229 225 224 223 216 204 196 195 189 185 183 182 185 187 190
316 306 301 301 303 303 303 316 313 314 308 298 304 322 359 338 333 301 247 207 214 220 224 222 218 218 220 222 224 217 214 217 214 204 199 190 186 186 183 184 187 190 192 196
309 313 311 300 296 298 297 295 304 313 301 302 284 273 279 287 297 307 231 193 200 205 211 213 214 214 210 209 213 210 221 217 207 199 192 190 187 186 187 189 192 195 198 202
302 302 303 310 305 295 294 295 292 291 300 290 295 275 252 250 255 249 255 239 224 211 207 208 209 208 208 217 215 222 218 209 201 197 194 192 191 191 193 196 198 201 205 209
294 296 296 297 297 302 298 291 291 291 285 280 275 278 276 256 248 245 244 246 248 245 237 226 225 221 222 223 229 225 216 208 201 199 196 197 196 195 199 201 204 206 208 212
285 288 292 292 291 290 291 291 290 284 286 284 268 268 269 276 258 251 247 245 243 241 241 235 233 233 232 233 231 226 219 209 204 202 201 200 199 201 205 207 208 211 213 216
280 283 286 284 285 286 284 285 285 284 283 280 279 272 262 262 268 267 249 246 246 246 246 243 239 239 239 238 235 228 220 212 208 206 207 205 204 207 211 212 214 216 219 222
277 278 280 281 280 281 282 283 280 280 277 276 276 273 272 259 263 260 261 254 248 247 248 248 244 240 240 238 233 227 221 217 213 211 212 210 210 211 215 218 219 222 224 226
273 275 276 277 276 275 275 277 279 277 275 274 270 267 265 264 260 259 261 259 258 251 248 250 249 245 241 238 236 229 224 220 217 215 216 215 214 215 217 221 223 225 228 231
271 271 272 273 274 275 273 273 272 273 273 270 269 267 265 260 257 259 261 260 257 257 252 249 251 248 244 241 238 232 228 224 222 221 220 220 219 219 221 223 225 228 228 232
268 268 269 270 271 271 271 270 268 268 268 267 268 265 263 263 260 255 256 259 258 256 256 253 249 251 249 244 240 236 232 227 226 225 223 224 223 223 223 226 227 230 233 233
267 267 265 265 266 268 267 266 265 263 264 264 264 264 261 259 260 260 255 256 256 253 253 253 254 251 250 249 246 241 236 233 229 229 228 227 228 227 227 229 230 232 234 237
264 264 264 266 266 264 263 261 262 262 261 262 263 261 259 258 257 258 259 257 256 255 252 250 251 251 252 251 249 246 242 237 234 230 231 231 231 231 231 232 233 234 236 238
261 262 264 261 258 258 257 260 259 258 258 257 260 262 258 258 259 258 257 255 255 253 250 251 250 249 250 249 249 248 246 244 239 236 234 234 234 233 235 235 235 236 237 240
262 259 258 258 256 255 258 256 257 259 257 258 259 263 263 259 257 257 257 257 256 255 255 253 250 249 248 248 248 248 247 246 245 242 239 238 237 238 237 238 239 238 239 241
258 259 259 254 254 254 254 256 258 256 256 257 258 259 259 258 257 259 256 257 255 254 254 253 252 249 248 248 247 247 246 247 247 246 245 241 241 240 240 239 240 242 242 243
261 260 258 256 255 254 255 256 256 257 257 257 258 258 257 258 259 259 259 258 255 253 251 251 253 254 250 248 247 247 246 246 246 247 247 246 245 244 243 243 243 244 245 245
264 261 258 257 254 255 255 256 256 256 257 256 257 258 258 257 257 257 257 255 255 256 253 250 251 251 252 250 247 246 247 246 246 246 246 247 247 247 246 246 246 246 247 247
267 263 261 260 258 257 256 255 255 255 255 257 257 257 257 257 258 258 257 256 255 253 253 252 251 250 250 252 251 248 247 248 247 246 246 246 247 247 248 247 247 248 248 249
266 264 263 262 260 258 258 257 258 257 256 254 254 255 256 257 257 256 256 256 257 257 254 252 251 251 252 251 251 252 249 247 247 247 246 247 247 247 247 249 249 249 249 250
266 264 263 262 261 261 260 259 258 259 258 258 259 257 255 255 256 257 257 258 258 257 257 255 252 250 248 251 252 250 250 250 248 247 246 246 247 247 248 248 249 250 251 252
268 268 266 265 263 263 262 261 261 261 262 264 263 262 262 262 260 258 258 257 256 256 255 255 253 251 249 248 248 248 249 249 249 249 247 246 246 247 247 247 248 249 249 250
271 269 268 267 266 264 265 266 264 263 263 263 263 263 263 262 261 260 258 257 257 257 255 254 252 251 251 249 248 247 247 248 247 248 249 249 248 247 246 247 247 248 249 250
272 271 270 268 266 267 267 266 265 267 266 264 263 262 262 262 262 262 261 259 257 255 254 254 252 250 250 250 250 250 249 247 247 246 247 248 248 249 249 248 247 248 248 249
273 272 273 273 274 273 271 270 270 269 269 269 268 267 266 264 262 261 260 259 260 260 258 255 253 252 250 250 250 250 250 250 248 247 246 247 247 247 249 249 249 249 249 250
Height
10793 10792 10790 10788 10786 10784 10782 10781 10779 10778 10774 10772 10770 10768 10766 10766 10766 10767 10768 10771 10776 10780 10784 10787 10791 10796 10800 10803 10808 10812 10816 10819 10821 10824 10827 10831 10834 10838 10843 10848 10852 10858 10862 10866
10789 10787 10786 10784 10783 10781 10780 10779 10778 10777 10774 10772 10770 10768 10766 10765 10764 10764 10765 10766 10770 10775 10779 10782 10786 10790 10794 10798 10802 10806 10810 10814 10817 10820 10823 10827 10831 10835 10840 10845 10851 10856 10860 10864
10785 10784 10782 10780 10779 10778 10776 10775 10775 10775 10774 10772 10771 10769 10769 10766 10765 10764 10764 10765 10768 10771 10774 10778 10781 10785 10789 10793 10797 10802 10806 10810 10813 10816 10820 10824 10829 10833 10838 10843 10847 10851 10855 10860
10782 10780 10777 10775 10774 10773 10772 10771 10771 10770 10771 10771 10769 10769 10768 10767 10767 10766 10766 10766 10767 10769 10772 10775 10778 10781 10784 10789 10794 10798 10802 10805 10808 10813 10817 10821 10826 10830 10835 10839 10843 10847 10851 10855
10777 10775 10773 10771 10769 10768 10766 10766 10766 10766 10766 10768 10768 10764 10766 10766 10766 10767 10767 10766 10767 10768 10770 10772 10774 10778 10782 10786 10789 10792 10797 10800 10804 10808 10812 10817 10821 10826 10830 10835 10839 10842 10846 10850
10771 10769 10767 10766 10764 10762 10761 10760 10760 10760 10760 10763 10764 10762 10760 10763 10764 10764 10764 10764 10765 10766 10768 10770 10772 10775 10778 10781 10783 10786 10790 10794 10799 10803 10807 10811 10816 10821 10825 10830 10834 10838 10841 10844
10764 10761 10761 10759 10758 10756 10754 10754 10753 10754 10752 10754 10757 10757 10758 10757 10760 10759 10759 10760 10760 10761 10763 10765 10768 10770 10772 10775 10777 10779 10783 10787 10792 10796 10800 10804 10810 10814 10818 10823 10827 10831 10833 10836
10756 10753 10750 10752 10750 10748 10748 10747 10746 10745 10745 10745 10747 10749 10752 10753 10754 10751 10750 10751 10752 10754 10755 10758 10760 10763 10765 10767 10770 10772 10776 10780 10784 10788 10792 10797 10802 10806 10810 10814 10818 10822 10825 10827
10745 10745 10741 10739 10739 10739 10738 10738 10738 10736 10737 10736 10737 10740 10742 10745 10748 10741 10739 10743 10744 10745 10746 10748 10751 10753 10755 10757 10760 10763 10768 10773 10777 10781 10786 10789 10793 10797 10801 10806 10810 10813 10815 10818
10733 10732 10731 10727 10726 10728 10726 10727 10728 10727 10726 10723 10728 10728 10730 10735 10733 10732 10732 10733 10734 10736 10738 10739 10741 10744 10747 10748 10751 10754 10758 10763 10768 10772 10776 10780 10784 10787 10791 10795 10797 10800 10804 10808
10714 10717 10715 10713 10713 10713 10713 10714 10714 10714 10713 10710 10713 10717 10717 10721 10722 10723 10722 10722 10725 10726 10728 10729 10730 10732 10735 10738 10741 10743 10746 10752 10756 10761 10764 10768 10771 10776 10780 10783 10785 10788 10791 10795
10693 10697 10698 10697 10697 10697 10697 10699 10699 10699 10697 10696 10694 10704 10706 10707 10710 10713 10712 10710 10713 10716 10717 10719 10720 10720 10722 10725 10728 10731 10734 10739 10743 10748 10752 10755 10758 10763 10767 10769 10772 10776 10779 10784
10672 10677 10677 10677 10679 10680 10681 10680 10680 10682 10681 10678 10678 10683 10687 10694 10698 10699 10699 10697 10696 10701 10705 10708 10708 10709 10710 10711 10714 10717 10720 10723 10728 10733 10737 10741 10744 10748 10753 10756 10759 10763 10766 10769
10650 10653 10656 10657 10659 10661 10660 10661 10660 10663 10666 10662 10661 10658 10667 10677 10685 10685 10682 10682 10683 10688 10690 10692 10693 10693 10695 10697 10698 10701 10704 10707 10711 10715 10719 10723 10727 10732 10736 10739 10743 10747 10750 10753
10628 10633 10631 10635 10634 10637 10642 10639 10639 10642 10643 10647 10637 10637 10651 10659 10664 10666 10666 10664 10665 10668 10672 10674 10674 10675 10677 10680 10682 10684 10687 10691 10694 10698 10702 10707 10711 10715 10719 10723 10727 10731 10734 10736
10599 10606 10606 10611 10608 10614 10616 10616 10619 10617 10621 10627 10622 10615 10628 10636 10641 10638 10640 10642 10648 10653 10656 10656 10655 10653 10657 10661 10664 10667 10669 10672 10675 10679 10683 10688 10692 10697 10701 10705 10708 10713 10716 10719
10576 10575 10580 10587 10584 10583 10585 10593 10595 10596 10600 10601 10600 10602 10606 10608 10615 10614 10620 10621 10625 10629 10634 10632 10627 10631 10637 10642 10645 10647 10650 10653 10656 10660 10664 10668 10671 10676 10680 10684 10688 10692 10697 10700
10549 10548 10553 10559 10556 10556 10558 10565 10567 10569 10574 10576 10577 10579 10583 10587 10591 10589 10591 10595 10596 10602 10605 10608 10608 10608 10613 10617 10620 10624 10627 10631 10635 10639 10643 10647 10651 10655 10659 10663 10667 10671 10676 10680
10521 10521 10523 10525 10528 10524 10534 10535 10537 10539 10544 10546 10550 10554 10557 10559 10564 10562 10562 10566 10570 10573 10577 10580 10582 10584 10585 10590 10596 10601 10602 10607 10611 10616 10620 10624 10628 10632 10636 10641 10644 10649 10654 10658
10492 10492 10495 10494 10497 10498 10501 10503 10502 10505 10511 10519 10520 10523 10526 10529 10531 10532 10532 10534 10537 10543 10547 10550 10555 10558 10561 10563 10568 10577 10580 10583 10586 10592 10596 10599 10603 10607 10611 10616 10620 10624 10629 10634
10460 10457 10457 10459 10463 10466 10470 10473 10467 10465 10480 10483 10487 10490 10491 10493 10496 10501 10502 10504 10507 10512 10518 10523 10528 10533 10535 10538 10542 10546 10552 10556 10559 10565 10570 10573 10576 10581 10588 10591 10594 10599 10603 10609
10425 10424 10427 10430 10431 10432 10434 10438 10435 10428 10438 10446 10451 10459 10462 10462 10462 10464 10469 10473 10476 10479 10483 10489 10496 10501 10506 10506 10509 10516 10518 10521 10527 10534 10541 10545 10548 10554 10561 10566 10569 10572 10576 10581
10395 10392 10394 10398 10401 10400 10398 10401 10399 10403 10412 10412 10413 10414 10417 10422 10428 10433 10437 10439 10442 10444 10446 10449 10458 10465 10466 10468 10473 10480 10480 10483 10490 10498 10505 10513 10519 10524 10529 10535 10540 10542 10545 10551
10363 10355 10366 10368 10367 10366 10367 10363 10366 10371 10373 10375 10375 10375 10374 10378 10382 10389 10395 10400 10402 10406 10410 10416 10422 10427 10431 10432 10437 10439 10443 10448 10456 10465 10472 10479 10486 10492 10497 10501 10506 10511 10515 10519
10321 10325 10332 10338 10333 10338 10336 10337 10338 10334 10334 10338 10336 10334 10338 10343 10348 10350 10354 10356 10362 10367 10371 10378 10384 10392 10396 10395 10399 10399 10405 10411 10420 10428 10436 10442 10448 10455 10463 10468 10472 10478 10483 10485
10284 10294 10306 10312 10306 10307 10306 10303 10306 10305 10301 10297 10302 10303 10299 10307 10312 10314 10318 10320 10324 10329 10332 10338 10343 10348 10353 10354 10356 10356 10363 10369 10378 10388 10397 10403 10410 10416 10423 10429 10436 10442 10450 10454